{"data":{"norad_id":65290,"intl_designator":"2025-184T","name":"STARLINK-34984","alt_names":[],"object_type":"PAYLOAD","status":"ACTIVE","operator":null,"country":"US","launch_date":"2025-08-22","launch_site_code":"AFWTR","launch_vehicle":null,"mission":null,"orbit_class":"UNKNOWN","rcs_meters":null,"size_class":null,"mass_kg":null,"dimensions":null,"purposes":["comms"],"wikipedia_slug":null,"has_3d_model":false,"image_url":null,"decayed_at":null,"tle_current":{"epoch":"2026-05-25T04:43:42.647232Z","epoch_age_seconds":54081,"freshness":"FRESH","line1":"1 65290U 25184T   26145.19702138  .00037437  00000+0  25798-2 0  9997","line2":"2 65290  97.4514 197.7166 0002433 119.4066 240.7405 15.05725151 42819","mean_motion":15.05725151,"eccentricity":0.0002433,"inclination_deg":97.4514,"raan_deg":197.7166,"arg_perigee_deg":119.4066,"mean_anomaly_deg":240.7405,"bstar":0.0025798,"rev_number":4281,"period_min":95.634983518981,"perigee_km":547.59520467179,"apogee_km":550.96608609803,"semimajor_km":6927.4176453849,"source":"CELESTRAK","updated_at":"2026-05-25T13:38:20.732975Z"}}}